Regional Weather Roundup
Issued by NWS

Home | Current Version | Previous Version | Graphics & Text | Print | Product List | Glossary On
Versions: 1 2 3 4 5 6 7 8 9 10 11 12 13 14 15 16 17 18 19 20 21 22 23 24 25 26 27 28 29 30 31 32 33 34 35 36 37 38 39 40 41 42 43 44 45 46 47 48 49 50
000
ASUS43 KLOT 082208
RWRIL

ILLINOIS REGIONAL WEATHER ROUNDUP
NATIONAL WEATHER SERVICE CHICAGO/ROMEOVILLE IL
400 PM CST MON FEB 08 2016

NOTE: "FAIR" INDICATES FEW OR NO CLOUDS BELOW 12,000 FEET WITH NO
SIGNIFICANT WEATHER AND/OR OBSTRUCTIONS TO VISIBILITY.

* THESE STATIONS ARE NOT UNDER NWS QUALITY CONTROL. THEY ALSO MAY NOT
  REPORT WEATHER SUCH AS PRECIPITATION OR FOG.

ILZ001-002-007-009-015-016-024-082300-
NORTHWEST ILLINOIS

CITY           SKY/WX    TMP DP  RH WIND       PRES   REMARKS
MOLINE         CLOUDY    20  12  71 NW15G25   29.85R WCI   6
STERLING*      CLOUDY    25  14  63 W17       29.76R WCI  11
SAVANNA*       CLOUDY    23  14  68 NW13      29.81R WCI  12
$$

ILZ003-004-008-010-011-017-018-082300-
NORTH CENTRAL ILLINOIS

CITY           SKY/WX    TMP DP  RH WIND       PRES   REMARKS
ROCKFORD       CLOUDY    26  17  68 NW15      29.76R WCI  14
FREEPORT*      CLOUDY    23  16  74 W13G22    29.77R WCI  11
ROCHELLE*      CLOUDY    24  18  75 NW12      29.76R WCI  13
DE KALB*       CLOUDY    26  19  77 W15G22    29.73R WCI  13
$$

ILZ005-006-012>014-019>023-082300-
NORTHEAST ILLINOIS

CITY           SKY/WX    TMP DP  RH WIND       PRES   REMARKS
CHICAGO-OHARE  CLOUDY    27  20  75 NW13      29.70R WCI  16
CHICAGO-MIDWAY CLOUDY    29  20  69 W10       29.71R WCI  20
AURORA         CLOUDY    27  20  75 W16       29.73R WCI  15
LANSING*       CLOUDY    28  22  77 W10       29.72R WCI  19
WAUKEGAN       LGT SNOW  26  20  77 W9G16     29.69R FOG     WCI  17
DUPAGE AIRPORT CLOUDY    26  19  74 NW12      29.71R WCI  16
KANKAKEE*      CLOUDY    27  19  72 W14       29.75R WCI  15
WHEELING       CLOUDY    28  20  71 W12       29.71R WCI  18
MORRIS*        CLOUDY    26  19  75 W17       29.73R WCI  13
ROMEOVILLE*    CLOUDY    27  21  77 W16       29.73R WCI  15
NORTHERLY ISL    N/A     28  22  78 W7          N/A  WCI  21
$$

LMZ740>746-082300-
SOUTHERN LAKE MICHIGAN

STATION/POSITION SKY/WX   TEMP    WIND        PRES    VSBY  WAVE
                          AIR SEA DIR/SP/G                  HT/PER
                          (F)     (DEG/KT/KT) (MB)    (MI)  (FT/S)
HARRISON CRIB              29     280/ 17/ 19   N/A
BURNHAM HARBOR             29     290/  9/ 13   N/A
CALUMET HARBOR             28     260/  8/ 13 1005.1R
BURNS HARBOR               30     280/ 13/ 15 1006.1R
MICHIGAN CITY              30     260/ 15/ 17   N/A
$$

ILZ025>027-034>036-040-047-049-050-058-095>099-082300-
WEST-CENTRAL ILLINOIS

CITY           SKY/WX    TMP DP  RH WIND       PRES   REMARKS
QUINCY         LGT SNOW  19  11  70 NW23      29.92R WCI   2
GALESBURG*     FLURRIES  19  13  78 W18G25    29.85R WCI   4
MACOMB*        FLURRIES  20  15  81 NW26G32   29.90R WCI   2
JACKSONVILLE*  FLURRIES  23  15  71 W17G25    29.89R WCI   9
PITTSFIELD*    LGT SNOW  22  15  76 NW10G16   29.91S WCI  11
$$

ILZ028>032-037-038-041>044-048-051>054-059>061-082300-
CENTRAL ILLINOIS

CITY           SKY/WX    TMP DP  RH WIND       PRES   REMARKS
PONTIAC        FLURRIES  24  19  80 W20       29.78R WCI  10
BLOOMINGTON    LGT SNOW  21  18  88 NW18      29.80R FOG     WCI   6
DECATUR        LGT SNOW  22  15  75 W16       29.83R WCI   8
PEORIA         FLURRIES  21  12  68 NW10      29.84R WCI  10
LACON*         FLURRIES  22  15  76 W10G22    29.81R WCI  11
LINCOLN*       LGT SNOW  22  17  79 W12G20    29.84R WCI  11
SPRINGFIELD    LGT SNOW  21  17  84 W16       29.87R FOG     WCI   7
TAYLORVILLE    NOT AVBL
$$

ILZ033-039-045-046-055>057-062-063-082300-
EAST-CENTRAL ILLINOIS

CITY           SKY/WX    TMP DP  RH WIND       PRES   REMARKS
CHAMPAIGN      CLOUDY    22  16  78 W23       29.79S WCI   6
RANTOUL*       LGT SNOW  24  19  80 NW14      29.78R WCI  12
MATTOON        LGT SNOW  21  16  81 W22       29.82R WCI   5
PARIS*         LGT SNOW  23  20  89 W20G26    29.81R WCI   8
$$

ILZ079-100>102-082300-
SOUTHWEST ILLINOIS

CITY           SKY/WX    TMP DP  RH WIND       PRES   REMARKS
ALTON          LGT SNOW  23  16  74 NW21      29.91R WCI   8
CAHOKIA*       LGT SNOW  26  16  65 NW18      29.93R WCI  13
SPARTA*        LGT SNOW  25  18  73 W17G23    29.92R WCI  12
$$

ILZ064>066-069>071-074>076-080>082-084>086-088>090-092>094-082300-
SOUTH-CENTRAL ILLINOIS

CITY           SKY/WX    TMP DP  RH WIND       PRES   REMARKS
CARBONDALE     FLURRIES  28  16  60 NW13G23   29.91R WCI  17
CAIRO*         CLOUDY    32  21  64 W17G24    29.92R WCI  21
EFFINGHAM*     LGT SNOW  23  19  87 W13G22    29.88R WCI  11
MARION         FLURRIES  30  18  59 NW17      29.91R WCI  18
MT. VERNON     CLOUDY    27  14  59 NW8       29.89R WCI  18
CENTRALIA*     LGT SNOW  25  20  80 NW17G28   29.88R WCI  12
SALEM*         LGT SNOW  25  19  80 NW12      29.88R VSB 1   WCI  14
METROPOLIS*    CLOUDY    32  20  60 W17G25    29.91R WCI  21
$$

ILZ067-068-072-073-078-083-087-091-082300-
SOUTHEAST ILLINOIS

CITY           SKY/WX    TMP DP  RH WIND       PRES   REMARKS
LAWRENCEVILLE  LGT SNOW  26  21  81 W15       29.84R WCI  14
FLORA*         LGT SNOW  26  19  77 W24       29.88R WCI  10
FAIRFIELD*     LGT SNOW  25  19  78 W7G20     29.87R VSB 3/4 WCI  18
HARRISBURG*    CLOUDY    30  20  66 NW23G29   29.89R WCI  16
ROBINSON*      LGT SNOW  26  20  80 NW16      29.84R WCI  13
CARMI*         LGT SNOW  28  24  84 NW15G31   29.87R WCI  16
$$

ABBREVIATIONS USED IN REMARKS
   TC - TEMPERATURE IN CELSIUS
  WCI - WIND CHILL INDEX
   HX - HEAT INDEX
  VSB - VISIBILITY
$$




USA.gov is the U.S. government's official web portal to all federal, state and local government web resources and services.